SWA241 KEYW-KMCO

Flight info

Callsign SWA241
Flight time 0h 42m
Altitude 34000
Route BUFTT1 GUFFS FERAL JOKRS3
Aircraft B38M/M-SDE1FGHILORVWXY/HB1

Departure

Time 2026-05-01 07:49
Airport Key West International Airport (KEYW)

Arrival

Time 2026-05-01 08:32
Airport Orlando International Airport (KMCO)
Time Latitude Longitude Altitude Speed Heading
2026-05-01 07:35 24.55443 -81.75501 14 ft 0 kts 180°
2026-05-01 07:37 24.55454 -81.75501 15 ft 4 kts 184°
2026-05-01 07:38 24.55479 -81.75495 15 ft 4 kts 216°
2026-05-01 07:38 24.55489 -81.75478 15 ft 1 kts 269°
2026-05-01 07:38 24.55489 -81.75477 15 ft 0 kts 269°
2026-05-01 07:43 24.55489 -81.75478 15 ft 1 kts 269°
2026-05-01 07:44 24.55489 -81.75502 15 ft 0 kts 269°
2026-05-01 07:44 24.55489 -81.75524 14 ft 6 kts 269°
2026-05-01 07:45 24.55489 -81.75562 15 ft 7 kts 270°
2026-05-01 07:45 24.55520 -81.75595 15 ft 7 kts 330°
2026-05-01 07:45 24.55529 -81.75665 15 ft 9 kts 269°
2026-05-01 07:45 24.55529 -81.75735 15 ft 10 kts 269°
2026-05-01 07:46 24.55529 -81.75747 15 ft 0 kts 269°
2026-05-01 07:46 24.55528 -81.75785 15 ft 10 kts 269°
2026-05-01 07:47 24.55527 -81.75888 15 ft 19 kts 269°
2026-05-01 07:47 24.55526 -81.76044 14 ft 20 kts 269°
2026-05-01 07:47 24.55524 -81.76207 14 ft 22 kts 269°
2026-05-01 07:47 24.55522 -81.76382 14 ft 24 kts 269°
2026-05-01 07:48 24.55531 -81.76650 16 ft 10 kts 313°
2026-05-01 07:48 24.55605 -81.76659 13 ft 10 kts 31°
2026-05-01 07:48 24.55608 -81.76615 13 ft 7 kts 94°
2026-05-01 07:49 24.55608 -81.76495 13 ft 33 kts 90°
2026-05-01 07:49 24.55625 -81.74750 273 ft 167 kts 90°
2026-05-01 07:49 24.55732 -81.73389 922 ft 199 kts 72°
2026-05-01 07:50 24.56647 -81.72195 1772 ft 215 kts 27°
2026-05-01 07:50 24.59525 -81.72807 3410 ft 241 kts 316°
2026-05-01 07:50 24.60738 -81.74079 4574 ft 240 kts 319°
2026-05-01 07:51 24.62184 -81.75063 5516 ft 254 kts 338°
2026-05-01 07:51 24.63964 -81.75393 6248 ft 273 kts 359°
2026-05-01 07:51 24.65909 -81.75428 7116 ft 281 kts 358°
2026-05-01 07:52 24.69878 -81.75488 9135 ft 290 kts 359°
2026-05-01 07:52 24.71904 -81.75511 10108 ft 294 kts 359°
2026-05-01 07:52 24.73999 -81.75533 10766 ft 310 kts 358°
2026-05-01 07:53 24.78539 -81.75575 11954 ft 337 kts 358°
2026-05-01 07:53 24.80877 -81.75597 12831 ft 339 kts 358°
2026-05-01 07:53 24.83232 -81.75618 13632 ft 344 kts 357°
2026-05-01 07:53 24.85640 -81.75639 14379 ft 347 kts 357°
2026-05-01 07:54 24.90514 -81.75682 15897 ft 352 kts 357°
2026-05-01 07:55 24.97960 -81.75747 18050 ft 360 kts 356°
2026-05-01 07:55 25.02981 -81.75791 19229 ft 366 kts 356°
2026-05-01 07:56 25.10727 -81.75859 20886 ft 376 kts 355°
2026-05-01 07:56 25.16005 -81.75905 21961 ft 383 kts 355°
2026-05-01 07:57 25.20345 -81.75944 22811 ft 387 kts 354°
2026-05-01 07:57 25.31251 -81.76031 24558 ft 401 kts 354°
2026-05-01 07:58 25.42631 -81.76140 26145 ft 415 kts 354°
2026-05-01 07:58 25.54384 -81.76242 27643 ft 429 kts 354°
2026-05-01 07:59 25.66493 -81.76355 29091 ft 441 kts 354°
2026-05-01 07:59 25.78853 -81.76457 30512 ft 450 kts 354°
2026-05-01 08:00 26.04234 -81.76686 33202 ft 459 kts 354°
2026-05-01 08:01 26.17602 -81.76804 33943 ft 453 kts 354°
2026-05-01 08:01 26.20768 -81.76831 33983 ft 454 kts 354°
2026-05-01 08:02 26.30178 -81.76915 33961 ft 452 kts 354°
2026-05-01 08:03 26.39621 -81.76999 33960 ft 453 kts 354°
2026-05-01 08:03 26.49056 -81.77084 33963 ft 453 kts 354°
2026-05-01 08:04 26.61706 -81.76493 33962 ft 455 kts 357°
2026-05-01 08:05 26.71216 -81.76020 33960 ft 457 kts 357°
2026-05-01 08:06 26.80727 -81.75547 33972 ft 457 kts 357°
2026-05-01 08:07 26.93381 -81.74917 33992 ft 456 kts 357°
2026-05-01 08:07 26.99565 -81.74608 33614 ft 436 kts 356°
2026-05-01 08:08 27.02589 -81.74442 33010 ft 435 kts 358°
2026-05-01 08:08 27.08617 -81.74050 31888 ft 431 kts 357°
2026-05-01 08:09 27.14569 -81.73670 30888 ft 425 kts 357°
2026-05-01 08:09 27.17481 -81.73484 30378 ft 424 kts 357°
2026-05-01 08:09 27.20422 -81.73296 29829 ft 422 kts 357°
2026-05-01 08:10 27.26260 -81.72967 28711 ft 414 kts 352°
2026-05-01 08:10 27.31688 -81.74408 27765 ft 396 kts 339°
2026-05-01 08:11 27.36935 -81.76112 26872 ft 389 kts 338°
2026-05-01 08:11 27.42092 -81.77835 25988 ft 384 kts 338°
2026-05-01 08:12 27.47153 -81.79536 25131 ft 379 kts 337°
2026-05-01 08:12 27.49674 -81.80385 24709 ft 377 kts 337°
2026-05-01 08:12 27.54685 -81.82072 23873 ft 374 kts 337°
2026-05-01 08:13 27.57180 -81.82913 23451 ft 373 kts 337°
2026-05-01 08:13 27.59659 -81.83748 22968 ft 372 kts 337°
2026-05-01 08:13 27.64646 -81.85190 22085 ft 376 kts 350°
2026-05-01 08:14 27.67250 -81.84911 21636 ft 388 kts
2026-05-01 08:14 27.69808 -81.83899 21264 ft 388 kts 13°
2026-05-01 08:14 27.72342 -81.82858 20845 ft 386 kts 13°
2026-05-01 08:14 27.74852 -81.81815 20430 ft 384 kts 13°
2026-05-01 08:15 27.77358 -81.80765 20019 ft 383 kts 13°
2026-05-01 08:15 27.82318 -81.78680 19210 ft 379 kts 13°
2026-05-01 08:15 27.84790 -81.77639 18791 ft 378 kts 13°
2026-05-01 08:16 27.87226 -81.76612 18386 ft 371 kts 13°
2026-05-01 08:16 27.89605 -81.75609 17959 ft 358 kts 13°
2026-05-01 08:16 27.91924 -81.74727 17509 ft 341 kts
2026-05-01 08:16 27.94208 -81.74257 17162 ft 329 kts
2026-05-01 08:17 27.96439 -81.73795 16809 ft 332 kts
2026-05-01 08:17 27.98736 -81.73315 16449 ft 336 kts
2026-05-01 08:17 28.01054 -81.72830 16093 ft 340 kts
2026-05-01 08:17 28.03351 -81.72084 15661 ft 352 kts 20°
2026-05-01 08:18 28.05399 -81.70548 15322 ft 356 kts 31°
2026-05-01 08:18 28.09366 -81.67193 14561 ft 354 kts 32°
2026-05-01 08:19 28.13262 -81.63853 13804 ft 353 kts 32°
2026-05-01 08:19 28.15217 -81.62170 13366 ft 353 kts 32°
2026-05-01 08:19 28.17175 -81.60483 12948 ft 352 kts 32°
2026-05-01 08:19 28.19121 -81.58805 12558 ft 351 kts 32°
2026-05-01 08:20 28.21053 -81.57140 12256 ft 346 kts 32°
2026-05-01 08:20 28.22947 -81.55506 12102 ft 337 kts 32°
2026-05-01 08:20 28.24752 -81.53885 11938 ft 330 kts 40°
2026-05-01 08:20 28.26168 -81.51864 11656 ft 321 kts 51°
2026-05-01 08:21 28.27466 -81.49834 11247 ft 315 kts 50°
2026-05-01 08:21 28.28756 -81.47835 10754 ft 313 kts 50°
2026-05-01 08:21 28.30035 -81.45851 10275 ft 310 kts 50°
2026-05-01 08:21 28.31369 -81.43991 9779 ft 304 kts 36°
2026-05-01 08:22 28.33153 -81.42852 9272 ft 289 kts 10°
2026-05-01 08:22 28.35102 -81.42575 8747 ft 280 kts 356°
2026-05-01 08:22 28.37049 -81.42509 8222 ft 279 kts 356°
2026-05-01 08:22 28.38984 -81.42469 7784 ft 275 kts 356°
2026-05-01 08:23 28.40861 -81.42447 7486 ft 265 kts 356°
2026-05-01 08:23 28.42670 -81.42434 7226 ft 255 kts 356°
2026-05-01 08:23 28.44406 -81.42427 6978 ft 245 kts 356°
2026-05-01 08:23 28.46062 -81.42422 6676 ft 239 kts 356°
2026-05-01 08:24 28.47724 -81.42420 6261 ft 238 kts 357°
2026-05-01 08:24 28.49369 -81.42418 5842 ft 236 kts 357°
2026-05-01 08:24 28.51011 -81.42417 5451 ft 234 kts 358°
2026-05-01 08:24 28.52636 -81.42416 5060 ft 232 kts 358°
2026-05-01 08:25 28.54243 -81.42416 4674 ft 230 kts 358°
2026-05-01 08:25 28.55836 -81.42415 4273 ft 227 kts 358°
2026-05-01 08:25 28.57406 -81.42414 3947 ft 225 kts 358°
2026-05-01 08:25 28.58970 -81.42414 3756 ft 224 kts 358°
2026-05-01 08:26 28.60529 -81.42413 3646 ft 223 kts 358°
2026-05-01 08:26 28.62047 -81.42105 3495 ft 225 kts 25°
2026-05-01 08:26 28.63181 -81.40960 3376 ft 221 kts 57°
2026-05-01 08:26 28.63610 -81.39300 3315 ft 221 kts 84°
2026-05-01 08:27 28.63660 -81.37547 3219 ft 221 kts 88°
2026-05-01 08:27 28.63502 -81.35810 3083 ft 221 kts 108°
2026-05-01 08:27 28.62744 -81.34298 2948 ft 221 kts 129°
2026-05-01 08:27 28.61721 -81.32986 2841 ft 221 kts 133°
2026-05-01 08:28 28.60677 -81.31699 2798 ft 221 kts 133°
2026-05-01 08:28 28.59628 -81.30502 2779 ft 205 kts 147°
2026-05-01 08:28 28.58417 -81.29881 2786 ft 185 kts 168°
2026-05-01 08:28 28.57149 -81.29611 2624 ft 189 kts 168°
2026-05-01 08:29 28.55920 -81.29185 2420 ft 176 kts 163°
2026-05-01 08:29 28.54799 -81.28696 2043 ft 170 kts 163°
2026-05-01 08:29 28.53697 -81.28365 1827 ft 161 kts 173°
2026-05-01 08:29 28.52587 -81.28259 1625 ft 161 kts 181°
2026-05-01 08:30 28.51472 -81.28229 1412 ft 160 kts 182°
2026-05-01 08:30 28.50363 -81.28272 1197 ft 159 kts 186°
2026-05-01 08:30 28.49280 -81.28266 1009 ft 157 kts 179°
2026-05-01 08:30 28.48190 -81.28237 793 ft 155 kts 185°
2026-05-01 08:31 28.47126 -81.28310 629 ft 153 kts 177°
2026-05-01 08:31 28.46094 -81.28266 474 ft 146 kts 180°
2026-05-01 08:31 28.45079 -81.28261 283 ft 144 kts 180°
2026-05-01 08:31 28.44083 -81.28255 103 ft 139 kts 179°
2026-05-01 08:32 28.43294 -81.28246 99 ft 79 kts 179°
2026-05-01 08:32 28.42890 -81.28242 101 ft 53 kts 180°
2026-05-01 08:32 28.42590 -81.28264 100 ft 26 kts 208°
2026-05-01 08:32 28.42505 -81.28411 97 ft 24 kts 250°
2026-05-01 08:33 28.42449 -81.28590 100 ft 24 kts 251°
2026-05-01 08:33 28.42394 -81.28766 105 ft 21 kts 249°
2026-05-01 08:33 28.42361 -81.28873 107 ft 22 kts 251°
2026-05-01 08:33 28.42289 -81.29140 97 ft 31 kts 263°
2026-05-01 08:34 28.42284 -81.29387 97 ft 30 kts 269°
2026-05-01 08:34 28.42283 -81.29583 96 ft 23 kts 270°
2026-05-01 08:34 28.42285 -81.29674 97 ft 15 kts 284°
2026-05-01 08:34 28.42343 -81.29700 97 ft 10 kts 359°
2026-05-01 08:35 28.42438 -81.29701 99 ft 18 kts 359°
2026-05-01 08:35 28.42599 -81.29703 98 ft 26 kts 359°
2026-05-01 08:35 28.42791 -81.29705 99 ft 28 kts 359°
2026-05-01 08:35 28.42995 -81.29708 98 ft 30 kts 359°
2026-05-01 08:36 28.43208 -81.29709 99 ft 32 kts 359°
2026-05-01 08:36 28.43397 -81.29711 99 ft 21 kts 359°
2026-05-01 08:36 28.43527 -81.29715 99 ft 10 kts 346°
2026-05-01 08:36 28.43549 -81.29786 100 ft 11 kts 269°
2026-05-01 08:37 28.43559 -81.29879 98 ft 12 kts 315°
2026-05-01 08:37 28.43629 -81.29888 101 ft 12 kts 360°
2026-05-01 08:37 28.43732 -81.29903 98 ft 18 kts 339°
2026-05-01 08:37 28.43820 -81.30006 98 ft 18 kts 288°
2026-05-01 08:38 28.43817 -81.30124 99 ft 15 kts 236°
2026-05-01 08:38 28.43749 -81.30223 97 ft 17 kts 232°
2026-05-01 08:38 28.43683 -81.30320 97 ft 14 kts 232°
2026-05-01 08:38 28.43621 -81.30341 98 ft 7 kts 164°
2026-05-01 08:39 28.43605 -81.30336 99 ft 0 kts 163°
2026-05-01 08:39 28.43597 -81.30333 99 ft 1 kts 163°